Time,TemperatureF,DewpointF,PressureIn,WindDirection,WindDirectionDegrees,WindSpeedMPH,WindSpeedGustMPH,Humidity,HourlyPrecipIn,Conditions,Clouds,dailyrainin,SoftwareType,DateUTC
2013-07-31 00:11:00,43.6,39.0,30.18,South,184,0.0,1.0,85,0.00,,,0.00,weatherlink.com 1.10,2013-07-31 06:11:00,
2013-07-31 00:26:00,43.1,39.0,30.18,South,184,0.0,0.0,86,0.00,,,0.00,weatherlink.com 1.10,2013-07-31 06:26:00,
2013-07-31 00:41:00,42.7,39.0,30.18,South,184,0.0,0.0,86,0.00,,,0.00,weatherlink.com 1.10,2013-07-31 06:41:00,
2013-07-31 00:56:00,42.2,39.0,30.18,South,184,0.0,0.0,87,0.00,,,0.00,weatherlink.com 1.10,2013-07-31 06:56:00,
2013-07-31 01:11:00,42.1,38.0,30.18,South,184,0.0,0.0,86,0.00,,,0.00,weatherlink.com 1.10,2013-07-31 07:11:00,
2013-07-31 01:26:00,41.7,38.0,30.18,South,184,0.0,0.0,87,0.00,,,0.00,weatherlink.com 1.10,2013-07-31 07:26:00,
2013-07-31 01:41:00,41.0,38.0,30.18,South,184,0.0,0.0,88,0.00,,,0.00,weatherlink.com 1.10,2013-07-31 07:41:00,
2013-07-31 01:56:00,40.6,38.0,30.18,South,184,0.0,0.0,89,0.00,,,0.00,weatherlink.com 1.10,2013-07-31 07:56:00,
2013-07-31 02:26:00,40.0,37.0,30.18,South,184,0.0,0.0,90,0.00,,,0.00,weatherlink.com 1.10,2013-07-31 08:26:00,
2013-07-31 02:42:00,39.5,37.0,30.17,South,184,0.0,0.0,90,0.00,,,0.00,weatherlink.com 1.10,2013-07-31 08:42:00,
2013-07-31 02:57:00,39.3,37.0,30.17,South,184,0.0,0.0,91,0.00,,,0.00,weatherlink.com 1.10,2013-07-31 08:57:00,
2013-07-31 03:12:00,39.0,36.0,30.17,South,184,0.0,1.0,90,0.00,,,0.00,weatherlink.com 1.10,2013-07-31 09:12:00,
2013-07-31 03:27:00,38.8,36.0,30.17,South,184,0.0,0.0,91,0.00,,,0.00,weatherlink.com 1.10,2013-07-31 09:27:00,
2013-07-31 03:42:00,38.5,36.0,30.17,South,184,0.0,0.0,91,0.00,,,0.00,weatherlink.com 1.10,2013-07-31 09:42:00,
2013-07-31 03:57:00,38.0,36.0,30.17,South,184,0.0,0.0,91,0.00,,,0.00,weatherlink.com 1.10,2013-07-31 09:57:00,
2013-07-31 04:12:00,37.7,36.0,30.18,South,184,0.0,0.0,92,0.00,,,0.00,weatherlink.com 1.10,2013-07-31 10:12:00,
2013-07-31 04:27:00,37.6,36.0,30.17,South,184,0.0,0.0,92,0.00,,,0.00,weatherlink.com 1.10,2013-07-31 10:27:00,
2013-07-31 04:42:00,37.6,36.0,30.18,South,184,0.0,1.0,92,0.00,,,0.00,weatherlink.com 1.10,2013-07-31 10:42:00,
2013-07-31 04:57:00,37.3,35.0,30.18,South,184,0.0,1.0,92,0.00,,,0.00,weatherlink.com 1.10,2013-07-31 10:57:00,
2013-07-31 05:12:00,37.2,35.0,30.19,South,184,0.0,0.0,92,0.00,,,0.00,weatherlink.com 1.10,2013-07-31 11:12:00,
2013-07-31 05:27:00,37.1,35.0,30.20,South,184,0.0,0.0,93,0.00,,,0.00,weatherlink.com 1.10,2013-07-31 11:27:00,
2013-07-31 05:42:00,37.0,35.0,30.20,South,184,0.0,1.0,93,0.00,,,0.00,weatherlink.com 1.10,2013-07-31 11:42:00,
2013-07-31 05:57:00,36.8,35.0,30.21,South,184,0.0,0.0,93,0.00,,,0.00,weatherlink.com 1.10,2013-07-31 11:57:00,
2013-07-31 06:12:00,36.5,35.0,30.21,South,184,0.0,0.0,93,0.00,,,0.00,weatherlink.com 1.10,2013-07-31 12:12:00,
2013-07-31 06:27:00,36.6,35.0,30.22,South,184,0.0,1.0,94,0.00,,,0.00,weatherlink.com 1.10,2013-07-31 12:27:00,
2013-07-31 06:42:00,36.9,35.0,30.22,South,184,0.0,0.0,94,0.00,,,0.00,weatherlink.com 1.10,2013-07-31 12:42:00,
2013-07-31 06:57:00,37.2,36.0,30.23,South,184,0.0,1.0,94,0.00,,,0.00,weatherlink.com 1.10,2013-07-31 12:57:00,
2013-07-31 07:12:00,37.9,36.0,30.23,South,188,1.0,1.0,94,0.00,,,0.00,weatherlink.com 1.10,2013-07-31 13:12:00,
2013-07-31 07:27:00,38.9,37.0,30.22,South,188,0.0,1.0,93,0.00,,,0.00,weatherlink.com 1.10,2013-07-31 13:27:00,
2013-07-31 07:42:00,40.4,38.0,30.22,South,188,0.0,1.0,91,0.00,,,0.00,weatherlink.com 1.10,2013-07-31 13:42:00,
2013-07-31 07:57:00,42.0,40.0,30.22,South,188,0.0,0.0,91,0.00,,,0.00,weatherlink.com 1.10,2013-07-31 13:57:00,
2013-07-31 08:12:00,43.9,41.0,30.21,South,188,0.0,0.0,90,0.00,,,0.00,weatherlink.com 1.10,2013-07-31 14:12:00,
2013-07-31 08:27:00,46.0,43.0,30.21,South,188,0.0,0.0,88,0.00,,,0.00,weatherlink.com 1.10,2013-07-31 14:27:00,
2013-07-31 08:42:00,49.2,43.0,30.21,SSE,155,0.0,1.0,78,0.00,,,0.00,weatherlink.com 1.10,2013-07-31 14:42:00,
2013-07-31 08:57:00,51.9,42.0,30.20,SSE,147,0.0,1.0,69,0.00,,,0.00,weatherlink.com 1.10,2013-07-31 14:57:00,
2013-07-31 09:12:00,53.8,41.0,30.20,ESE,120,0.0,2.0,63,0.00,,,0.00,weatherlink.com 1.10,2013-07-31 15:12:00,
2013-07-31 09:27:00,56.3,41.0,30.19,ESE,115,3.0,4.0,58,0.00,,,0.00,weatherlink.com 1.10,2013-07-31 15:27:00,
2013-07-31 09:43:00,58.3,42.0,30.18,East,98,0.0,4.0,55,0.00,,,0.00,weatherlink.com 1.10,2013-07-31 15:43:00,
2013-07-31 09:58:00,60.2,42.0,30.18,ESE,115,0.0,4.0,52,0.00,,,0.00,weatherlink.com 1.10,2013-07-31 15:58:00,
2013-07-31 10:13:00,62.9,42.0,30.17,ESE,118,2.0,6.0,46,0.00,,,0.00,weatherlink.com 1.10,2013-07-31 16:13:00,
2013-07-31 10:43:00,63.2,41.0,30.16,ESE,122,2.0,5.0,45,0.00,,,0.00,weatherlink.com 1.10,2013-07-31 16:43:00,
2013-07-31 10:58:00,66.4,44.0,30.15,East,94,8.0,9.0,44,0.00,,,0.00,weatherlink.com 1.10,2013-07-31 16:58:00,
2013-07-31 11:13:00,67.6,40.0,30.15,WSW,246,1.0,9.0,37,0.00,,,0.00,weatherlink.com 1.10,2013-07-31 17:13:00,
2013-07-31 11:28:00,69.5,41.0,30.14,ESE,109,2.0,6.0,36,0.00,,,0.00,weatherlink.com 1.10,2013-07-31 17:28:00,
2013-07-31 11:43:00,70.6,37.0,30.14,East,101,1.0,6.0,29,0.00,,,0.00,weatherlink.com 1.10,2013-07-31 17:43:00,
2013-07-31 11:58:00,71.1,37.0,30.13,ESE,117,7.0,9.0,29,0.00,,,0.00,weatherlink.com 1.10,2013-07-31 17:58:00,
2013-07-31 12:13:00,71.1,41.0,30.12,ESE,113,0.0,8.0,34,0.00,,,0.00,weatherlink.com 1.10,2013-07-31 18:13:00,
2013-07-31 12:28:00,72.1,38.0,30.12,West,265,0.0,10.0,29,0.00,,,0.00,weatherlink.com 1.10,2013-07-31 18:28:00,
2013-07-31 12:43:00,71.3,37.0,30.12,ESE,110,1.0,10.0,29,0.00,,,0.00,weatherlink.com 1.10,2013-07-31 18:43:00,
2013-07-31 12:58:00,71.3,40.0,30.11,ESE,106,2.0,7.0,32,0.00,,,0.00,weatherlink.com 1.10,2013-07-31 18:58:00,
2013-07-31 13:13:00,70.5,36.0,30.11,ESE,107,1.0,6.0,28,0.00,,,0.00,weatherlink.com 1.10,2013-07-31 19:13:00,
2013-07-31 13:28:00,71.3,38.0,30.10,West,264,1.0,9.0,30,0.00,,,0.00,weatherlink.com 1.10,2013-07-31 19:28:00,
2013-07-31 13:43:00,73.2,38.0,30.09,ESE,114,2.0,9.0,28,0.00,,,0.00,weatherlink.com 1.10,2013-07-31 19:43:00,
2013-07-31 13:58:00,73.5,36.0,30.09,ESE,110,4.0,9.0,26,0.00,,,0.00,weatherlink.com 1.10,2013-07-31 19:58:00,
2013-07-31 14:15:00,73.0,39.0,30.09,ESE,109,0.0,8.0,29,0.00,,,0.00,weatherlink.com 1.10,2013-07-31 20:15:00,
2013-07-31 14:29:00,74.0,39.0,30.08,SE,129,0.0,8.0,28,0.00,,,0.00,weatherlink.com 1.10,2013-07-31 20:29:00,
2013-07-31 14:44:00,74.2,36.0,30.07,East,97,2.0,12.0,25,0.00,,,0.00,weatherlink.com 1.10,2013-07-31 20:44:00,
2013-07-31 14:59:00,74.2,38.0,30.07,ESE,104,7.0,7.0,27,0.00,,,0.00,weatherlink.com 1.10,2013-07-31 20:59:00,
2013-07-31 15:14:00,73.7,32.0,30.06,ESE,109,6.0,10.0,22,0.00,,,0.00,weatherlink.com 1.10,2013-07-31 21:14:00,
2013-07-31 15:29:00,75.0,30.0,30.05,ESE,108,4.0,9.0,19,0.00,,,0.00,weatherlink.com 1.10,2013-07-31 21:29:00,
2013-07-31 15:44:00,74.1,31.0,30.04,ESE,105,5.0,15.0,20,0.00,,,0.00,weatherlink.com 1.10,2013-07-31 21:44:00,
2013-07-31 15:59:00,74.0,30.0,30.04,East,91,2.0,9.0,20,0.00,,,0.00,weatherlink.com 1.10,2013-07-31 21:59:00,
2013-07-31 16:14:00,74.3,32.0,30.03,NW,310,5.0,14.0,21,0.00,,,0.00,weatherlink.com 1.10,2013-07-31 22:14:00,
2013-07-31 16:29:00,74.4,33.0,30.03,ESE,103,0.0,11.0,22,0.00,,,0.00,weatherlink.com 1.10,2013-07-31 22:29:00,
2013-07-31 16:44:00,74.2,29.0,30.01,ESE,104,1.0,7.0,19,0.00,,,0.00,weatherlink.com 1.10,2013-07-31 22:44:00,
2013-07-31 16:59:00,73.7,30.0,30.01,ENE,75,1.0,13.0,20,0.00,,,0.00,weatherlink.com 1.10,2013-07-31 22:59:00,
2013-07-31 17:14:00,73.6,30.0,30.00,SE,135,1.0,11.0,20,0.00,,,0.00,weatherlink.com 1.10,2013-07-31 23:14:00,
2013-07-31 17:29:00,73.4,30.0,30.00,ESE,103,4.0,10.0,20,0.00,,,0.00,weatherlink.com 1.10,2013-07-31 23:29:00,
2013-07-31 17:44:00,73.3,32.0,29.99,SE,146,2.0,8.0,22,0.00,,,0.00,weatherlink.com 1.10,2013-07-31 23:44:00,
2013-07-31 18:03:00,73.1,32.0,29.99,East,101,7.0,8.0,22,0.00,,,0.00,weatherlink.com 1.10,2013-08-01 00:03:00,
2013-07-31 18:14:00,73.0,31.0,29.99,SE,139,0.0,7.0,21,0.00,,,0.00,weatherlink.com 1.10,2013-08-01 00:14:00,
2013-07-31 18:29:00,72.2,32.0,29.99,South,188,2.0,13.0,23,0.00,,,0.00,weatherlink.com 1.10,2013-08-01 00:29:00,
2013-07-31 18:44:00,71.8,33.0,29.99,ESE,107,2.0,5.0,24,0.00,,,0.00,weatherlink.com 1.10,2013-08-01 00:44:00,
2013-07-31 18:59:00,71.4,34.0,29.99,ESE,108,1.0,3.0,25,0.00,,,0.00,weatherlink.com 1.10,2013-08-01 00:59:00,
2013-07-31 19:14:00,70.4,34.0,29.99,ESE,104,3.0,5.0,26,0.00,,,0.00,weatherlink.com 1.10,2013-08-01 01:14:00,
2013-07-31 19:29:00,69.5,39.0,29.99,ESE,113,0.0,2.0,33,0.00,,,0.00,weatherlink.com 1.10,2013-08-01 01:29:00,
2013-07-31 19:44:00,66.2,38.0,29.99,ESE,113,0.0,0.0,36,0.00,,,0.00,weatherlink.com 1.10,2013-08-01 01:44:00,
2013-07-31 20:50:00,55.3,40.0,30.00,South,185,0.0,1.0,57,0.00,,,0.00,weatherlink.com 1.10,2013-08-01 02:50:00,
2013-07-31 20:59:00,54.7,41.0,30.01,South,185,0.0,1.0,60,0.00,,,0.00,weatherlink.com 1.10,2013-08-01 02:59:00,
2013-07-31 21:14:00,54.0,41.0,30.01,South,186,0.0,1.0,61,0.00,,,0.00,weatherlink.com 1.10,2013-08-01 03:14:00,
2013-07-31 21:29:00,53.2,41.0,30.02,SSW,200,0.0,0.0,63,0.00,,,0.00,weatherlink.com 1.10,2013-08-01 03:29:00,
2013-07-31 21:44:00,52.2,40.0,30.02,SSW,200,0.0,1.0,63,0.00,,,0.00,weatherlink.com 1.10,2013-08-01 03:44:00,
2013-07-31 21:59:00,51.7,40.0,30.03,SSW,200,0.0,1.0,64,0.00,,,0.00,weatherlink.com 1.10,2013-08-01 03:59:00,
2013-07-31 22:14:00,50.9,39.0,30.03,SSW,200,1.0,1.0,65,0.00,,,0.00,weatherlink.com 1.10,2013-08-01 04:14:00,
2013-07-31 22:29:00,50.2,40.0,30.03,SSW,200,0.0,1.0,67,0.00,,,0.00,weatherlink.com 1.10,2013-08-01 04:29:00,
2013-07-31 22:44:00,49.6,39.0,30.03,SSW,200,0.0,1.0,67,0.00,,,0.00,weatherlink.com 1.10,2013-08-01 04:44:00,
2013-07-31 22:59:00,49.0,39.0,30.03,SSW,200,0.0,1.0,69,0.00,,,0.00,weatherlink.com 1.10,2013-08-01 04:59:00,
2013-07-31 23:14:00,48.3,40.0,30.02,SSW,200,0.0,1.0,72,0.00,,,0.00,weatherlink.com 1.10,2013-08-01 05:14:00,
2013-07-31 23:29:00,47.7,39.0,30.02,SSW,200,0.0,1.0,71,0.00,,,0.00,weatherlink.com 1.10,2013-08-01 05:29:00,
2013-07-31 23:44:00,47.2,39.0,30.02,SSW,203,0.0,1.0,72,0.00,,,0.00,weatherlink.com 1.10,2013-08-01 05:44:00,
2013-07-31 23:59:00,46.6,39.0,30.03,SSW,203,0.0,1.0,74,0.00,,,0.00,weatherlink.com 1.10,2013-08-01 05:59:00,